If you wish to contribute or participate in the discussions about articles you are invited to join SKYbrary as a registered user

 Actions

Salon-de-Provence (BA 701) Air Base

From SKYbrary Wiki

LFMY
Airport
ICAO: LFMY
Summary
Name Salon-de-Provence (BA 701) Air Base
Region Europe
Territory France FR.gif
Location , Provence-Alpes-Cote d'Azur
Serving Salon
Elevation 59.436 m
195 ft
195 ft59.436 m
Type medium airport
Coordinates 43° 36' 23.09" N, 5° 6' 33.30" E
Runways
Designator Length Width Surface ROPS
9/27 0 m0 ft
0 m0 ft
UNK /
16/34 2001 m6,564.961 ft
45 m147.638 ft
CON /
17L/35R 0 m0 ft
0 m0 ft
UNK /
17R/35L 0 m0 ft
0 m0 ft
UNK /


METAR
Observation LFMY 270000Z AUTO 00000KT 0350 R16/0400N FG VV/// 04/04 Q1021
Station Salon
Date/Time 27 January 2020 00:00:00
Wind direction
Wind speed 00 kts
Lowest cloud amount n/a
Temperature 16°C
Dew point 0°C
Humidity 33%
QNH 1021 hPa
Weather condition n/a